Weather History for Imperial, CA

Change the Weather History Date:

Tuesday, April 22, 2014

  Actual Average Record
Temperature  
Mean Temperature 78 °F -  
Max Temperature 91 °F 86 °F 102 °F (2012)
Min Temperature 66 °F 56 °F 45 °F (1957)
Cooling Degree Days 14    
Growing Degree Days 28 (Base 50)    
Moisture  
Dew Point 35 °F    
Average Humidity 22    
Maximum Humidity 34    
Minimum Humidity 9    
Precipitation  
Precipitation 0.00 in - - ()
Sea Level Pressure  
Sea Level Pressure 29.76 in    
Wind  
Wind Speed 13 mph (WSW)    
Max Wind Speed 24 mph    
Max Gust Speed 32 mph    
Visibility 10 miles    
Events      
Averages and records for this station are not official NWS values.
T = Trace of Precipitation, MM = Missing Value Source: NWS Daily Summary

Daily Weather History Graph

Daily Weather History Graph

Search for Another Location

Airport:

Trip Planner

Search our weather history database for the weather conditions in past years. The results will help you decide how hot, cold, wet, or windy it might be!

Date:

Astronomy

Apr. 22, 2014 Rise Set
Actual Time 6:04 AM PDT 7:17 PM PDT
Civil Twilight 5:38 AM PDT 7:43 PM PDT
Nautical Twilight 5:08 AM PDT 8:14 PM PDT
Astronomical Twilight 4:36 AM PDT 8:45 PM PDT
Moon 1:34 AM PDT (4/22) 12:45 PM PDT (4/22)
Length of Visible Light 14h 04m
Length of Day
13h 13m
Last Quarter, 45% of the Moon is Illuminated
Apr 22
Last Quarter
Apr 28
New
May 6
First Quarter
May 14
Full
May 21
Last Quarter

Hourly Weather History & Observations

Time (PDT) Temp. Dew Point Humidity Pressure Visibility Wind Dir Wind Speed Gust Speed Precip Events Conditions
12:53 AM 73.9 °F 44.1 °F 34% 29.80 in 10.0 mi West 11.5 mph - N/A   Clear
1:53 AM 78.1 °F 39.0 °F 25% 29.77 in 10.0 mi West 11.5 mph - N/A   Clear
2:53 AM 73.0 °F 39.9 °F 30% 29.77 in 10.0 mi West 6.9 mph - N/A   Clear
3:53 AM 75.2 °F 35.6 °F 24% 29.76 in 10.0 mi West 10.4 mph - N/A   Clear
4:53 AM 78.1 °F 37.0 °F 23% 29.76 in 10.0 mi West 15.0 mph - N/A   Clear
5:53 AM 75.0 °F 37.9 °F 26% 29.76 in 10.0 mi WSW 11.5 mph - N/A   Clear
6:53 AM 72.0 °F 41.0 °F 33% 29.80 in 10.0 mi South 10.4 mph - N/A   Clear
7:53 AM 77.0 °F 46.0 °F 33% 29.81 in 10.0 mi South 5.8 mph - N/A   Clear
8:53 AM 82.0 °F 37.9 °F 21% 29.81 in 10.0 mi SW 6.9 mph - N/A   Clear
9:53 AM 84.9 °F 37.9 °F 19% 29.80 in 10.0 mi SSW 6.9 mph - N/A   Clear
10:53 AM 90.0 °F 30.9 °F 12% 29.80 in 10.0 mi WSW 13.8 mph - N/A   Clear
11:53 AM 91.0 °F 24.1 °F 9% 29.77 in 8.0 mi West 21.9 mph 32.2 mph N/A   Clear
12:53 PM 90.0 °F 28.9 °F 11% 29.76 in 10.0 mi West 24.2 mph 31.1 mph N/A   Clear
1:53 PM 91.0 °F 34.0 °F 13% 29.75 in 10.0 mi WSW 20.7 mph 28.8 mph N/A   Clear
2:53 PM 90.0 °F 32.0 °F 13% 29.73 in 10.0 mi WSW 20.7 mph 28.8 mph N/A   Clear
3:53 PM 88.0 °F 30.9 °F 13% 29.72 in 10.0 mi WSW 21.9 mph 29.9 mph N/A   Clear
4:53 PM 86.0 °F 35.1 °F 16% 29.71 in 10.0 mi WSW 18.4 mph 27.6 mph N/A   Clear
5:53 PM 84.0 °F 27.0 °F 13% 29.72 in 10.0 mi WSW 16.1 mph 25.3 mph N/A   Clear
6:53 PM 79.0 °F 33.1 °F 19% 29.72 in 10.0 mi WSW 19.6 mph 31.1 mph N/A   Clear
7:53 PM 73.9 °F 32.0 °F 21% 29.73 in 10.0 mi WSW 13.8 mph 28.8 mph N/A   Clear
8:53 PM 70.0 °F 30.9 °F 24% 29.76 in 10.0 mi West 15.0 mph - N/A   Clear
9:53 PM 68.0 °F 34.0 °F 28% 29.77 in 10.0 mi West 12.7 mph 21.9 mph N/A   Clear
10:53 PM 66.0 °F 36.0 °F 33% 29.76 in 10.0 mi West 17.3 mph 25.3 mph N/A   Clear
11:53 PM 66.0 °F 34.0 °F 30% 29.75 in 10.0 mi West 19.6 mph 26.5 mph N/A   Clear